CZ-11 DEB, 41846

Orbit data source: Space-Track

CZ-11 DEB, 41846 is space debris in SSO originally from a launch on Wed, 09 Nov 2016 UTC launched from the Jiuquan Satellite Launch Center, China (JSC). Debris objects in space refer to the collection of defunct objects orbiting the Earth. Examples of debris include non-operational satellites, rocket bodies, and fragments generated from explosions, collisions, or faulty payload assembly.

Loading next visibility...
Identifier
41846, 2016-066F
Orbit
SSO
Country
Flag of CNCN / PRC
Related business
Manufacturer
CALT
Mission
Spacecraft
Bus & Motor
Unknown
Mass
Unknown
Launch date (UTC)
2016-11-09 (10 years ago)
Launch vehicle
Unknown
Launch site
Jiuquan Satellite Launch Center, China (JSC)
Object type
Payload
Rocket body
Debris
Shape & HBR
Unknown shape, 0.1 m
Radar Cross Section
Medium (>0.1 m² and <1 m²)

Expand to show TLE details & history
Last TLE update: 6 hours ago

TLE from 6 hours ago
0 CZ-11 DEB
1 41846U 16066F   26256.19412230  .00003331  00000-0  41801-3 0  9992
2 41846  98.4219 347.2806 0304442 192.1537 167.2200 14.55256802517844
Epoch: 2026-09-13T04:39Z
TLE epoch observation values (Epoch: 2026-09-13T04:39:32.166Z)
Latitude
-0.00002°
Longitude
-74.7957°
Altitude
922.259 km
Speed
7.28 km/s
True Right ascension
23h 09m 07s
True Declination
0° 00' 00"
Sunlit
Object was in full shadow at epoch
Visualization orbit readout
Latitude
Unknown
Longitude
Unknown
Altitude
Unknown
Speed
Unknown
Apparent Right ascension
Unknown
Apparent Declination
Unknown
Sunlit
N/A
Visualization observer readout
Local Sidereal Time
03:06:23
Azimuth
Unknown
Elevation
Unknown
Doppler factor
Unknown
Orbital elements
Apogee altitude
921.284 km
Perigee altitude
489.965 km
Semi-major axis
7,083.762 km
Eccentricity
0.03044
Inclination
98.4219°
RAAN
347.2806°
Arg. of periapsis
192.1537°
True anomaly
167.96404°
Mean anomaly
167.22°
Eccentric anomaly
167.59472°
Mean motion
3.64038 °/min
Orbital period
98.89 mins
BSTAR
0.00041801
Loading maneuver chart data...
Computing Atmospheric mass density...
Loading historical data...
Loading historical data...
Loading historical data...
Loading historical data...
Loading historical data...
Loading historical data...
Loading historical data...

Documentation

Showing up to 5 results
|